Showing default

AMAZONIA 1, 47699

Orbit data source: Space-Track

AMAZONIA 1, 47699 is a payload satellite owned by INPE (BR) in SSO that was launched on Sun, 28 Feb 2021 UTC via a PSLV-DL launch vehicle from the Sirharikota (SRI). Payload-class satellites include a variety of spacecraft equipped with specific instruments for various scientific and technological missions. These include communications satellites like Starlink; space stations such as the ISS; scientific satellites like the Hubble; Earth observation satellites from companies like Planet Labs, Umbra, and HawkEye 360; GPS; miniature CubeSats for education and research; and military/defense satellites.

Loading next visibility...
Identifier
47699, 2021-015A
Orbit
SSO
Country
Flag of BRBR / BRAZ
Related business
Manufacturer
INPE
Mission
Operational Civil Imaging
Bus & Motor
PMM, Unknown motor
Mass
637 kg wet, ~600 kg dry
Launch date (UTC)
2021-02-28 (5 years ago)
Launch vehicle
PSLV-DL
Launch site
Sirharikota (SRI)
Object type
Payload
Rocket body
Debris
Shape & HBR
Box + 2 Pan, 3.0 m
Radar Cross Section
3.631 m², Large (>1 m²)

Expand to show TLE details & history
Last TLE update: 7 hours ago

TLE from 7 hours ago
0 AMAZONIA 1
1 47699U 21015A   26168.78390759  .00000177  00000-0  68732-4 0  9990
2 47699  98.4314 241.4300 0003030 174.7920 185.3300 14.40814371278736
Epoch: 2026-06-17T18:48Z
TLE epoch observation values (Epoch: 2026-06-17T18:48:49.615Z)
Latitude
-0.00013°
Longitude
53.18666°
Altitude
760.913 km
Speed
7.473 km/s
True Right ascension
16h 05m 43s
True Declination
0° 00' 00"
Sunlit
Object was in full shadow at epoch
Visualization orbit readout
Latitude
Unknown
Longitude
Unknown
Altitude
Unknown
Speed
Unknown
Apparent Right ascension
Unknown
Apparent Declination
Unknown
Sunlit
N/A
Visualization observer readout
Local Sidereal Time
12:45:58
Azimuth
Unknown
Elevation
Unknown
Doppler factor
Unknown
Orbital elements
Apogee altitude
755.087 km
Perigee altitude
750.766 km
Semi-major axis
7,131.064 km
Eccentricity
0.0003
Inclination
98.4314°
RAAN
241.43°
Arg. of periapsis
174.792°
True anomaly
185.32678°
Mean anomaly
185.33°
Eccentric anomaly
185.32839°
Mean motion
3.60422 °/min
Orbital period
99.88 mins
BSTAR
0.000068732
Loading maneuver chart data...
Computing Atmospheric mass density...

Documentation

Showing up to 5 results
|